Powrót do katalogu

STARLINK-36265

AktywnyŁącznośćVLEO
NORAD 67208·PAYLOAD·🇺🇸 United States

Wystrzelony Dec 17, 2025 z Vandenberg Space Force Base

Loading…

Następne Przeloty (najbliższe 24 godziny)

TLE

ŚwieżeSource: CelesTrak SupGP

Epoka: Sep 14, 2026, 21:43 UTC

1 67208C 25304S   26257.90534722  .00028230  00000+0  23656-2 0  2576
2 67208  70.0012  57.5052 0002818 276.8189 101.3373 14.98320342    14

Śledź STARLINK-36265 w czasie rzeczywistym z AllMySat

Download on the App Store